CDT,Max TemperatureF,Mean TemperatureF,Min TemperatureF,Max Dew PointF,MeanDew PointF,Min DewpointF,Max Humidity, Mean Humidity, Min Humidity, Max Sea Level PressureIn, Mean Sea Level PressureIn, Min Sea Level PressureIn, Max VisibilityMiles, Mean VisibilityMiles, Min VisibilityMiles, Max Wind SpeedMPH, Mean Wind SpeedMPH, Max Gust SpeedMPH,PrecipitationIn, CloudCover, Events, WindDirDegrees
2013-5-1,36,33,30,32,23,20,85,71,56,30.59,30.29,29.90,10,10,7,18,10,25,0.00,8,,288
2013-5-2,36,33,29,23,22,20,72,64,56,30.67,30.63,30.57,10,10,10,13,6,16,T,8,,354
2013-5-3,42,33,23,25,21,13,81,58,35,30.56,30.43,30.33,10,10,10,16,7,22,0.01,4,,31
2013-5-4,38,35,32,36,34,28,100,91,82,30.34,30.30,30.26,10,10,8,13,6,17,0.32,8,Rain,33
2013-5-5,50,41,32,40,36,32,96,84,71,30.31,30.24,30.16,10,10,6,9,4,13,0.19,7,Rain,38
2013-5-6,70,49,28,46,38,28,100,71,42,30.17,30.11,30.03,10,8,0,9,3,,0.00,1,Fog,256
2013-5-7,77,55,33,47,41,33,100,64,27,30.07,30.00,29.92,10,10,10,17,4,23,0.00,1,,212
2013-5-8,73,56,39,51,42,34,93,66,38,30.14,30.02,29.94,10,10,10,18,6,24,0.01,5,Rain,18
2013-5-9,57,48,38,32,26,20,70,47,24,30.26,30.21,30.13,10,10,10,18,9,25,0.00,0,,41
2013-5-10,60,44,27,43,29,20,92,62,32,30.26,30.08,29.89,10,10,10,25,10,33,0.03,4,Rain,218
2013-5-11,43,37,31,30,26,19,85,65,45,30.22,30.09,29.99,10,10,5,22,13,36,T,7,Rain-Snow,320
2013-5-12,49,36,22,22,17,12,88,56,24,30.25,30.20,30.13,10,10,10,20,6,26,0.00,0,,357
2013-5-13,63,44,24,39,28,19,75,53,31,30.11,29.89,29.64,10,10,5,23,9,35,0.06,3,Rain,148
2013-5-14,82,59,35,52,43,33,89,58,26,29.68,29.54,29.36,10,10,10,28,12,39,0.02,3,Rain,201
2013-5-15,74,60,45,46,40,34,89,58,27,29.87,29.78,29.66,10,10,10,26,10,35,T,1,Rain,297
2013-5-16,67,48,29,37,33,28,92,59,26,30.04,30.00,29.89,10,10,10,13,5,18,0.00,1,,51
2013-5-17,71,60,48,43,38,34,80,54,28,30.12,30.05,30.02,10,10,10,18,9,24,0.01,7,Rain,111
2013-5-18,58,55,51,56,49,33,100,73,46,30.01,29.92,29.86,10,5,0,13,5,17,0.22,8,Fog-Rain,114
2013-5-19,56,54,52,54,52,50,100,97,93,29.90,29.85,29.81,10,4,0,20,11,31,2.19,8,Fog-Rain-Thunderstorm,66
2013-5-20,53,49,45,52,48,44,0,0,0,29.82,29.73,29.68,10,5,2,33,16,24,1.19,8,Rain,73
2013-5-21,47,45,42,45,42,39,100,88,76,29.95,29.85,29.77,10,7,2,18,11,26,0.41,8,Rain,56
2013-5-22,69,56,43,44,38,33,83,56,29,30.18,30.01,29.93,10,10,10,20,9,26,0.00,1,,32
2013-5-23,59,46,33,33,29,24,92,61,30,30.40,30.33,30.20,10,10,10,13,6,18,0.00,0,,36
2013-5-24,69,50,30,40,33,29,100,63,26,30.37,30.31,30.23,10,10,10,14,4,18,0.00,0,,111
2013-5-25,66,57,47,45,41,38,80,60,39,30.31,30.28,30.24,10,10,10,15,6,20,0.02,6,Rain,124
2013-5-26,72,56,40,41,36,32,68,48,27,30.30,30.22,30.12,10,10,10,18,8,24,0.00,3,,131
2013-5-27,73,55,37,45,39,32,85,58,31,30.12,29.99,29.87,10,10,10,20,7,28,0.00,3,,137
2013-5-28,71,60,48,53,46,37,72,57,42,29.86,29.76,29.67,10,10,10,15,6,20,0.00,7,,142
2013-5-29,82,68,54,61,54,51,87,63,39,29.73,29.70,29.68,10,10,10,16,6,21,0.08,5,Rain,198
2013-5-30,69,65,60,64,61,55,0,0,0,29.71,29.63,29.54,10,9,3,17,9,23,0.19,7,Rain,89
2013-5-31,73,63,52,63,60,53,100,77,53,29.61,29.51,29.48,10,8,1,23,10,38,0.75,7,Rain,104